{"data":{"norad_id":56232,"intl_designator":"2023-055A","name":"FENGYUN 3G","alt_names":[],"object_type":"PAYLOAD","status":"ACTIVE","operator":null,"country":"PRC","launch_date":"2023-04-16","launch_site_code":"JSC","launch_vehicle":null,"mission":null,"orbit_class":"UNKNOWN","rcs_meters":null,"size_class":null,"mass_kg":null,"dimensions":null,"purposes":["earth_obs"],"wikipedia_slug":null,"has_3d_model":false,"image_url":null,"decayed_at":null,"tle_current":{"epoch":"2026-09-20T04:43:30.110592Z","epoch_age_seconds":40443,"freshness":"FRESH","line1":"1 56232U 23055A   26263.19687628  .00018928  00000+0  29446-3 0  9994","line2":"2 56232  49.9912 216.1012 0011351  56.4649 303.7401 15.53832195194770","mean_motion":15.53832195,"eccentricity":0.0011351,"inclination_deg":49.9912,"raan_deg":216.1012,"arg_perigee_deg":56.4649,"mean_anomaly_deg":303.7401,"bstar":0.00029446,"rev_number":19477,"period_min":92.674099856709,"perigee_km":397.84925783588,"apogee_km":413.24958274722,"semimajor_km":6783.6864202915,"source":"CELESTRAK","updated_at":"2026-09-20T09:00:33.252544Z"}}}